Time,TemperatureF,DewpointF,PressureIn,WindDirection,WindDirectionDegrees,WindSpeedMPH,WindSpeedGustMPH,Humidity,HourlyPrecipIn,Conditions,Clouds,dailyrainin,SolarRadiationWatts/m^2,SoftwareType,DateUTC
2013-07-08 00:01:00,77.4,74.1,29.93,SSW,207,2.0,6.0,90,0.00,,,0.00,0.0,meteohub,2013-07-08 04:01:00,
2013-07-08 00:02:00,77.4,74.1,29.93,SSW,208,2.0,6.0,90,0.00,,,0.00,0.0,meteohub,2013-07-08 04:02:00,
2013-07-08 00:07:00,77.5,74.3,29.92,SSW,203,0.0,8.0,90,0.00,,,0.00,0.0,meteohub,2013-07-08 04:07:00,
2013-07-08 00:12:00,77.5,74.3,29.92,SW,223,0.0,8.0,90,0.00,,,0.00,0.0,meteohub,2013-07-08 04:12:00,
2013-07-08 00:17:00,77.7,74.3,29.93,SW,223,0.0,7.0,89,0.00,,,0.00,0.0,meteohub,2013-07-08 04:17:00,
2013-07-08 00:22:00,77.7,74.3,29.93,SW,225,2.0,7.0,89,0.00,,,0.00,0.0,meteohub,2013-07-08 04:22:00,
2013-07-08 00:27:00,77.7,74.3,29.93,SSW,204,0.0,4.0,89,0.00,,,0.00,0.0,meteohub,2013-07-08 04:27:00,
2013-07-08 00:32:00,77.9,74.5,29.93,SSW,192,5.0,5.0,89,0.00,,,0.00,0.0,meteohub,2013-07-08 04:32:00,
2013-07-08 00:37:00,78.1,74.3,29.93,West,280,4.0,9.0,88,0.00,,,0.00,0.0,meteohub,2013-07-08 04:37:00,
2013-07-08 00:42:00,78.1,74.3,29.94,SW,217,2.0,9.0,88,0.00,,,0.00,0.0,meteohub,2013-07-08 04:42:00,
2013-07-08 00:47:00,78.1,74.3,29.94,WNW,284,0.0,8.0,88,0.00,,,0.00,0.0,meteohub,2013-07-08 04:47:00,
2013-07-08 00:52:00,78.1,74.3,29.94,SW,219,4.0,9.0,88,0.00,,,0.00,0.0,meteohub,2013-07-08 04:52:00,
2013-07-08 00:57:00,78.1,74.3,29.94,WSW,240,2.0,9.0,88,0.00,,,0.00,0.0,meteohub,2013-07-08 04:57:00,
2013-07-08 01:02:00,78.1,73.9,29.94,SW,236,0.0,8.0,87,0.00,,,0.00,0.0,meteohub,2013-07-08 05:02:00,
2013-07-08 01:07:00,78.1,73.9,29.94,WSW,241,2.0,8.0,87,0.00,,,0.00,0.0,meteohub,2013-07-08 05:07:00,
2013-07-08 01:12:00,78.1,73.9,29.94,WSW,249,0.0,5.0,87,0.00,,,0.00,0.0,meteohub,2013-07-08 05:12:00,
2013-07-08 01:17:00,77.9,73.8,29.94,WSW,249,0.0,5.0,87,0.00,,,0.00,0.0,meteohub,2013-07-08 05:17:00,
2013-07-08 01:22:00,77.9,73.4,29.94,WSW,238,1.0,5.0,86,0.00,,,0.00,0.0,meteohub,2013-07-08 05:22:00,
2013-07-08 01:27:00,77.7,73.2,29.94,WSW,238,0.0,4.0,86,0.00,,,0.00,0.0,meteohub,2013-07-08 05:27:00,
2013-07-08 01:32:00,77.7,73.2,29.94,WSW,238,0.0,4.0,86,0.00,,,0.00,0.0,meteohub,2013-07-08 05:32:00,
2013-07-08 01:37:00,77.7,73.2,29.94,WSW,238,0.0,2.0,86,0.00,,,0.00,0.0,meteohub,2013-07-08 05:37:00,
2013-07-08 01:42:00,77.7,73.2,29.94,WSW,238,0.0,0.0,86,0.00,,,0.00,0.0,meteohub,2013-07-08 05:42:00,
2013-07-08 01:47:00,77.7,73.2,29.94,WSW,238,0.0,0.0,86,0.00,,,0.00,0.0,meteohub,2013-07-08 05:47:00,
2013-07-08 01:52:00,77.5,73.0,29.94,WSW,238,0.0,0.0,86,0.00,,,0.00,0.0,meteohub,2013-07-08 05:52:00,
2013-07-08 01:57:00,77.4,72.9,29.94,WSW,238,0.0,1.0,86,0.00,,,0.00,0.0,meteohub,2013-07-08 05:57:00,
2013-07-08 02:02:00,77.2,73.0,29.94,WSW,238,0.0,1.0,87,0.00,,,0.00,0.0,meteohub,2013-07-08 06:02:00,
2013-07-08 02:07:00,76.8,72.7,29.94,WSW,238,0.0,1.0,87,0.00,,,0.00,0.0,meteohub,2013-07-08 06:07:00,
2013-07-08 02:12:00,76.5,72.7,29.94,SW,219,0.0,3.0,88,0.00,,,0.00,0.0,meteohub,2013-07-08 06:12:00,
2013-07-08 02:17:00,76.3,72.5,29.94,SW,217,0.0,4.0,88,0.00,,,0.00,0.0,meteohub,2013-07-08 06:17:00,
2013-07-08 02:22:00,75.9,72.1,29.94,WNW,291,1.0,4.0,88,0.00,,,0.00,0.0,meteohub,2013-07-08 06:22:00,
2013-07-08 02:27:00,75.7,72.0,29.94,South,184,4.0,7.0,88,0.00,,,0.00,0.0,meteohub,2013-07-08 06:27:00,
2013-07-08 02:32:00,75.7,71.6,29.94,South,189,0.0,7.0,87,0.00,,,0.00,0.0,meteohub,2013-07-08 06:32:00,
2013-07-08 02:37:00,75.7,71.2,29.94,SSW,198,1.0,7.0,86,0.00,,,0.00,0.0,meteohub,2013-07-08 06:37:00,
2013-07-08 02:42:00,75.6,70.7,29.94,SSE,153,1.0,7.0,85,0.00,,,0.00,0.0,meteohub,2013-07-08 06:42:00,
2013-07-08 02:47:00,75.6,70.7,29.94,SSW,211,2.0,9.0,85,0.00,,,0.00,0.0,meteohub,2013-07-08 06:47:00,
2013-07-08 02:52:00,75.7,70.5,29.94,SW,219,4.0,9.0,84,0.00,,,0.00,0.0,meteohub,2013-07-08 06:52:00,
2013-07-08 02:57:00,75.7,70.5,29.94,WNW,286,9.0,10.0,84,0.00,,,0.00,0.0,meteohub,2013-07-08 06:57:00,
2013-07-08 03:02:00,75.7,70.2,29.94,SW,223,3.0,11.0,83,0.00,,,0.00,0.0,meteohub,2013-07-08 07:02:00,
2013-07-08 03:07:00,75.7,70.2,29.94,South,178,1.0,11.0,83,0.00,,,0.00,0.0,meteohub,2013-07-08 07:07:00,
2013-07-08 03:12:00,75.7,69.8,29.94,SSW,213,6.0,11.0,82,0.00,,,0.00,0.0,meteohub,2013-07-08 07:12:00,
2013-07-08 03:17:00,75.7,69.8,29.93,WSW,239,4.0,12.0,82,0.00,,,0.00,0.0,meteohub,2013-07-08 07:17:00,
2013-07-08 03:22:00,75.7,69.8,29.93,SSW,196,0.0,13.0,82,0.00,,,0.00,0.0,meteohub,2013-07-08 07:22:00,
2013-07-08 03:27:00,75.7,69.8,29.93,South,188,4.0,13.0,82,0.00,,,0.00,0.0,meteohub,2013-07-08 07:27:00,
2013-07-08 03:32:00,75.6,69.6,29.93,WNW,282,6.0,13.0,82,0.00,,,0.00,0.0,meteohub,2013-07-08 07:32:00,
2013-07-08 03:37:00,75.6,69.3,29.93,SSW,205,5.0,11.0,81,0.00,,,0.00,0.0,meteohub,2013-07-08 07:37:00,
2013-07-08 03:42:00,75.6,69.3,29.94,WSW,250,3.0,11.0,81,0.00,,,0.00,0.0,meteohub,2013-07-08 07:42:00,
2013-07-08 03:47:00,75.4,69.1,29.93,West,261,1.0,11.0,81,0.00,,,0.00,0.0,meteohub,2013-07-08 07:47:00,
2013-07-08 03:52:00,75.4,68.7,29.93,SSW,202,6.0,11.0,80,0.00,,,0.00,0.0,meteohub,2013-07-08 07:52:00,
2013-07-08 03:57:00,75.4,68.7,29.93,WSW,242,5.0,7.0,80,0.00,,,0.00,0.0,meteohub,2013-07-08 07:57:00,
2013-07-08 04:02:00,75.6,68.5,29.93,SSW,194,13.0,13.0,79,0.00,,,0.00,0.0,meteohub,2013-07-08 08:02:00,
2013-07-08 04:07:00,75.6,68.5,29.93,SW,221,3.0,15.0,79,0.00,,,0.00,0.0,meteohub,2013-07-08 08:07:00,
2013-07-08 04:12:00,75.6,68.5,29.93,SW,227,5.0,15.0,79,0.00,,,0.00,0.0,meteohub,2013-07-08 08:12:00,
2013-07-08 04:17:00,75.4,68.7,29.93,South,186,2.0,15.0,80,0.00,,,0.00,0.0,meteohub,2013-07-08 08:17:00,
2013-07-08 04:22:00,75.4,68.7,29.94,SSW,202,1.0,13.0,80,0.00,,,0.00,0.0,meteohub,2013-07-08 08:22:00,
2013-07-08 04:27:00,75.4,68.4,29.94,SW,232,5.0,10.0,79,0.00,,,0.00,0.0,meteohub,2013-07-08 08:27:00,
2013-07-08 04:32:00,75.2,68.5,29.94,SW,232,7.0,12.0,80,0.00,,,0.00,0.0,meteohub,2013-07-08 08:32:00,
2013-07-08 04:37:00,75.0,68.4,29.94,SW,231,8.0,12.0,80,0.00,,,0.00,0.0,meteohub,2013-07-08 08:37:00,
2013-07-08 04:42:00,74.8,68.2,29.94,West,272,8.0,12.0,80,0.00,,,0.00,0.0,meteohub,2013-07-08 08:42:00,
2013-07-08 04:47:00,74.8,68.5,29.94,SW,226,1.0,12.0,81,0.00,,,0.00,0.0,meteohub,2013-07-08 08:47:00,
2013-07-08 04:52:00,74.7,68.4,29.94,SW,231,3.0,12.0,81,0.00,,,0.00,0.0,meteohub,2013-07-08 08:52:00,
2013-07-08 04:57:00,74.7,68.7,29.94,SW,224,2.0,12.0,82,0.00,,,0.00,0.0,meteohub,2013-07-08 08:57:00,
2013-07-08 05:02:00,74.5,68.5,29.94,WSW,251,4.0,7.0,82,0.00,,,0.00,0.0,meteohub,2013-07-08 09:02:00,
2013-07-08 05:07:00,74.3,68.4,29.94,SSW,211,3.0,7.0,82,0.00,,,0.00,0.0,meteohub,2013-07-08 09:07:00,
2013-07-08 05:12:00,74.1,68.2,29.94,SW,229,3.0,8.0,82,0.00,,,0.00,0.0,meteohub,2013-07-08 09:12:00,
2013-07-08 05:17:00,74.1,68.2,29.94,WSW,244,4.0,8.0,82,0.00,,,0.00,0.0,meteohub,2013-07-08 09:17:00,
2013-07-08 05:22:00,74.1,68.2,29.94,SSW,197,0.0,8.0,82,0.00,,,0.00,0.0,meteohub,2013-07-08 09:22:00,
2013-07-08 05:27:00,74.1,68.2,29.94,SW,231,4.0,8.0,82,0.00,,,0.00,0.0,meteohub,2013-07-08 09:27:00,
2013-07-08 05:32:00,74.1,68.2,29.95,WSW,257,4.0,9.0,82,0.00,,,0.00,5.0,meteohub,2013-07-08 09:32:00,
2013-07-08 05:37:00,74.1,68.2,29.95,SW,228,1.0,11.0,82,0.00,,,0.00,7.0,meteohub,2013-07-08 09:37:00,
2013-07-08 05:42:00,73.9,68.2,29.95,WSW,254,3.0,11.0,82,0.00,,,0.00,11.0,meteohub,2013-07-08 09:42:00,
2013-07-08 05:47:00,73.9,68.4,29.95,SSW,207,4.0,11.0,83,0.00,,,0.00,12.0,meteohub,2013-07-08 09:47:00,
2013-07-08 05:52:00,73.9,68.4,29.96,SW,233,2.0,10.0,83,0.00,,,0.00,16.0,meteohub,2013-07-08 09:52:00,
2013-07-08 05:57:00,73.9,68.4,29.96,SW,220,0.0,10.0,83,0.00,,,0.00,19.0,meteohub,2013-07-08 09:57:00,
2013-07-08 06:02:00,73.9,68.4,29.96,SW,218,0.0,10.0,83,0.00,,,0.00,26.0,meteohub,2013-07-08 10:02:00,
2013-07-08 06:07:00,73.9,68.7,29.96,SW,229,2.0,10.0,84,0.00,,,0.00,30.0,meteohub,2013-07-08 10:07:00,
2013-07-08 06:12:00,73.8,68.5,29.96,WSW,258,1.0,10.0,84,0.00,,,0.00,28.0,meteohub,2013-07-08 10:12:00,
2013-07-08 06:17:00,73.8,68.9,29.96,SW,234,3.0,10.0,85,0.00,,,0.00,58.0,meteohub,2013-07-08 10:17:00,
2013-07-08 06:22:00,73.8,68.9,29.96,SW,229,4.0,7.0,85,0.00,,,0.00,69.0,meteohub,2013-07-08 10:22:00,
2013-07-08 06:27:00,73.8,68.9,29.96,SW,221,1.0,7.0,85,0.00,,,0.00,88.0,meteohub,2013-07-08 10:27:00,
2013-07-08 06:32:00,73.8,69.3,29.96,West,266,4.0,7.0,86,0.00,,,0.00,109.0,meteohub,2013-07-08 10:32:00,
2013-07-08 06:37:00,73.9,69.4,29.97,West,281,1.0,7.0,86,0.00,,,0.00,125.0,meteohub,2013-07-08 10:37:00,
2013-07-08 06:42:00,73.9,69.4,29.96,SW,221,0.0,9.0,86,0.00,,,0.00,135.0,meteohub,2013-07-08 10:42:00,
2013-07-08 06:47:00,74.1,69.3,29.96,WSW,257,0.0,9.0,85,0.00,,,0.00,65.0,meteohub,2013-07-08 10:47:00,
2013-07-08 06:52:00,74.1,69.6,29.96,WSW,244,0.0,9.0,86,0.00,,,0.00,72.0,meteohub,2013-07-08 10:52:00,
2013-07-08 06:57:00,74.1,69.6,29.97,West,276,0.0,7.0,86,0.00,,,0.00,81.0,meteohub,2013-07-08 10:57:00,
2013-07-08 07:02:00,74.1,69.6,29.97,WNW,288,0.0,7.0,86,0.00,,,0.00,120.0,meteohub,2013-07-08 11:02:00,
2013-07-08 07:07:00,74.3,69.8,29.97,West,269,1.0,7.0,86,0.00,,,0.00,255.0,meteohub,2013-07-08 11:07:00,
2013-07-08 07:12:00,74.5,70.0,29.97,West,269,1.0,5.0,86,0.00,,,0.00,272.0,meteohub,2013-07-08 11:12:00,
2013-07-08 07:17:00,74.8,70.0,29.97,NNW,336,7.0,7.0,85,0.00,,,0.00,287.0,meteohub,2013-07-08 11:17:00,
2013-07-08 07:22:00,75.0,69.8,29.97,SW,217,0.0,8.0,84,0.00,,,0.00,288.0,meteohub,2013-07-08 11:22:00,
2013-07-08 07:27:00,75.6,70.3,29.98,NW,313,2.0,8.0,84,0.00,,,0.00,255.0,meteohub,2013-07-08 11:27:00,
2013-07-08 07:32:00,75.7,70.5,29.98,WSW,241,1.0,9.0,84,0.00,,,0.00,171.0,meteohub,2013-07-08 11:32:00,
2013-07-08 07:37:00,75.9,70.3,29.98,West,270,0.0,9.0,83,0.00,,,0.00,91.0,meteohub,2013-07-08 11:37:00,
2013-07-08 07:42:00,75.9,70.0,29.98,WNW,284,4.0,9.0,82,0.00,,,0.00,77.0,meteohub,2013-07-08 11:42:00,
2013-07-08 07:47:00,75.9,70.0,29.99,WNW,292,4.0,8.0,82,0.00,,,0.00,200.0,meteohub,2013-07-08 11:47:00,
2013-07-08 07:52:00,76.1,70.5,29.99,SW,227,3.0,8.0,83,0.00,,,0.00,130.0,meteohub,2013-07-08 11:52:00,
2013-07-08 07:57:00,76.1,70.5,29.99,SW,224,0.0,7.0,83,0.00,,,0.00,223.0,meteohub,2013-07-08 11:57:00,
2013-07-08 08:02:00,76.1,70.5,29.99,SW,224,0.0,6.0,83,0.00,,,0.00,121.0,meteohub,2013-07-08 12:02:00,
2013-07-08 08:07:00,76.3,71.1,29.99,SW,224,0.0,5.0,84,0.00,,,0.00,190.0,meteohub,2013-07-08 12:07:00,
2013-07-08 08:12:00,76.3,71.1,29.98,SW,224,0.0,4.0,84,0.00,,,0.00,408.0,meteohub,2013-07-08 12:12:00,
2013-07-08 08:17:00,76.6,71.4,29.98,SSW,208,0.0,3.0,84,0.00,,,0.00,410.0,meteohub,2013-07-08 12:17:00,
2013-07-08 08:22:00,77.0,71.4,29.98,South,188,3.0,5.0,83,0.00,,,0.00,371.0,meteohub,2013-07-08 12:22:00,
2013-07-08 08:27:00,77.4,71.8,29.98,SSW,196,0.0,5.0,83,0.00,,,0.00,232.0,meteohub,2013-07-08 12:27:00,
2013-07-08 08:32:00,77.5,72.0,29.98,South,182,0.0,5.0,83,0.00,,,0.00,455.0,meteohub,2013-07-08 12:32:00,
2013-07-08 08:37:00,77.7,71.8,29.98,SSE,165,2.0,5.0,82,0.00,,,0.00,469.0,meteohub,2013-07-08 12:37:00,
2013-07-08 08:42:00,78.1,72.1,29.98,South,178,2.0,6.0,82,0.00,,,0.00,482.0,meteohub,2013-07-08 12:42:00,
2013-07-08 08:47:00,78.4,72.1,29.98,South,171,0.0,6.0,81,0.00,,,0.00,483.0,meteohub,2013-07-08 12:47:00,
2013-07-08 08:52:00,78.6,72.3,29.98,SW,223,1.0,6.0,81,0.00,,,0.00,478.0,meteohub,2013-07-08 12:52:00,
2013-07-08 08:57:00,79.2,72.5,29.98,SW,234,0.0,6.0,80,0.00,,,0.00,526.0,meteohub,2013-07-08 12:57:00,
2013-07-08 09:02:00,79.5,72.9,29.98,WSW,241,2.0,6.0,80,0.00,,,0.00,555.0,meteohub,2013-07-08 13:02:00,
2013-07-08 09:07:00,80.1,73.0,29.98,SW,223,5.0,5.0,79,0.00,,,0.00,425.0,meteohub,2013-07-08 13:07:00,
2013-07-08 09:12:00,80.4,73.2,29.98,SW,217,0.0,5.0,79,0.00,,,0.00,585.0,meteohub,2013-07-08 13:12:00,
2013-07-08 09:17:00,81.0,73.4,29.98,WSW,237,6.0,6.0,78,0.00,,,0.00,568.0,meteohub,2013-07-08 13:17:00,
2013-07-08 09:22:00,81.0,73.0,29.98,SSW,207,0.0,7.0,77,0.00,,,0.00,575.0,meteohub,2013-07-08 13:22:00,
2013-07-08 09:27:00,80.4,72.9,29.98,SSW,194,6.0,8.0,78,0.00,,,0.00,584.0,meteohub,2013-07-08 13:27:00,
2013-07-08 09:32:00,80.2,72.7,29.98,South,180,0.0,8.0,78,0.00,,,0.00,613.0,meteohub,2013-07-08 13:32:00,
2013-07-08 09:37:00,80.2,72.7,29.98,South,170,2.0,8.0,78,0.00,,,0.00,622.0,meteohub,2013-07-08 13:37:00,
2013-07-08 09:42:00,80.2,73.0,29.98,South,186,0.0,10.0,79,0.00,,,0.00,640.0,meteohub,2013-07-08 13:42:00,
2013-07-08 09:47:00,80.6,73.0,29.98,SSE,152,1.0,10.0,78,0.00,,,0.00,649.0,meteohub,2013-07-08 13:47:00,
2013-07-08 09:52:00,80.8,73.2,29.98,South,171,0.0,10.0,78,0.00,,,0.00,663.0,meteohub,2013-07-08 13:52:00,
2013-07-08 09:57:00,81.9,73.9,29.98,West,272,6.0,6.0,77,0.00,,,0.00,575.0,meteohub,2013-07-08 13:57:00,
2013-07-08 10:02:00,82.2,73.6,29.98,SW,228,3.0,6.0,75,0.00,,,0.00,580.0,meteohub,2013-07-08 14:02:00,
2013-07-08 10:07:00,82.0,73.4,29.99,SSW,195,4.0,8.0,75,0.00,,,0.00,714.0,meteohub,2013-07-08 14:07:00,
2013-07-08 10:12:00,81.9,73.6,29.99,South,173,2.0,8.0,76,0.00,,,0.00,691.0,meteohub,2013-07-08 14:12:00,
2013-07-08 10:17:00,81.9,73.6,29.99,SSW,212,4.0,8.0,76,0.00,,,0.00,717.0,meteohub,2013-07-08 14:17:00,
2013-07-08 10:22:00,82.0,73.8,29.99,SSE,161,1.0,8.0,76,0.00,,,0.00,731.0,meteohub,2013-07-08 14:22:00,
2013-07-08 10:27:00,81.7,73.0,29.99,South,170,6.0,10.0,75,0.00,,,0.00,749.0,meteohub,2013-07-08 14:27:00,
2013-07-08 10:32:00,81.3,73.0,29.99,SW,217,5.0,11.0,76,0.00,,,0.00,671.0,meteohub,2013-07-08 14:32:00,
2013-07-08 10:37:00,81.1,72.5,29.99,SSE,163,6.0,11.0,75,0.00,,,0.00,568.0,meteohub,2013-07-08 14:37:00,
2013-07-08 10:42:00,81.3,73.0,29.99,SW,218,4.0,10.0,76,0.00,,,0.00,480.0,meteohub,2013-07-08 14:42:00,
2013-07-08 10:47:00,81.3,73.0,29.99,SSW,192,6.0,10.0,76,0.00,,,0.00,779.0,meteohub,2013-07-08 14:47:00,
2013-07-08 10:52:00,81.5,73.2,29.99,West,265,5.0,8.0,76,0.00,,,0.00,777.0,meteohub,2013-07-08 14:52:00,
2013-07-08 10:57:00,81.7,73.0,29.99,South,178,7.0,10.0,75,0.00,,,0.00,784.0,meteohub,2013-07-08 14:57:00,
2013-07-08 11:02:00,81.1,72.5,29.99,South,179,2.0,11.0,75,0.00,,,0.00,758.0,meteohub,2013-07-08 15:02:00,
2013-07-08 11:07:00,80.8,72.5,29.99,West,263,5.0,14.0,76,0.00,,,0.00,728.0,meteohub,2013-07-08 15:07:00,
2013-07-08 11:12:00,81.3,73.0,29.99,SSW,207,1.0,14.0,76,0.00,,,0.00,807.0,meteohub,2013-07-08 15:12:00,
2013-07-08 11:17:00,81.9,73.2,29.99,SW,218,8.0,14.0,75,0.00,,,0.00,816.0,meteohub,2013-07-08 15:17:00,
2013-07-08 11:22:00,81.7,73.0,29.99,SW,224,9.0,14.0,75,0.00,,,0.00,821.0,meteohub,2013-07-08 15:22:00,
2013-07-08 11:27:00,81.7,73.0,29.99,SSW,207,8.0,14.0,75,0.00,,,0.00,823.0,meteohub,2013-07-08 15:27:00,
2013-07-08 11:32:00,81.9,73.2,29.99,West,266,7.0,14.0,75,0.00,,,0.00,826.0,meteohub,2013-07-08 15:32:00,
2013-07-08 11:37:00,82.2,73.6,29.99,SW,227,7.0,13.0,75,0.00,,,0.00,830.0,meteohub,2013-07-08 15:37:00,
2013-07-08 11:42:00,82.9,74.1,29.99,South,184,3.0,13.0,75,0.00,,,0.00,837.0,meteohub,2013-07-08 15:42:00,
2013-07-08 11:47:00,82.9,73.8,29.99,SSE,147,5.0,13.0,74,0.00,,,0.00,844.0,meteohub,2013-07-08 15:47:00,
2013-07-08 11:52:00,82.9,73.4,29.99,South,181,3.0,10.0,73,0.00,,,0.00,849.0,meteohub,2013-07-08 15:52:00,
2013-07-08 11:57:00,82.9,73.4,29.99,South,169,5.0,12.0,73,0.00,,,0.00,851.0,meteohub,2013-07-08 15:57:00,
2013-07-08 12:02:00,82.8,73.2,29.99,South,186,8.0,12.0,73,0.00,,,0.00,853.0,meteohub,2013-07-08 16:02:00,
2013-07-08 12:07:00,82.8,73.6,29.99,South,178,5.0,12.0,74,0.00,,,0.00,858.0,meteohub,2013-07-08 16:07:00,
2013-07-08 12:12:00,82.6,73.4,29.99,SSW,207,5.0,12.0,74,0.00,,,0.00,863.0,meteohub,2013-07-08 16:12:00,
2013-07-08 12:17:00,82.9,73.4,29.99,South,189,3.0,12.0,73,0.00,,,0.00,867.0,meteohub,2013-07-08 16:17:00,
2013-07-08 12:22:00,82.9,73.0,29.99,SSE,168,2.0,12.0,72,0.00,,,0.00,870.0,meteohub,2013-07-08 16:22:00,
2013-07-08 12:27:00,82.9,73.4,29.99,SW,224,6.0,14.0,73,0.00,,,0.00,872.0,meteohub,2013-07-08 16:27:00,
2013-07-08 12:32:00,82.9,73.4,29.99,WSW,246,6.0,15.0,73,0.00,,,0.00,877.0,meteohub,2013-07-08 16:32:00,
2013-07-08 12:37:00,83.5,73.9,29.99,SW,221,3.0,15.0,73,0.00,,,0.00,877.0,meteohub,2013-07-08 16:37:00,
2013-07-08 12:42:00,82.9,73.0,29.99,South,183,3.0,15.0,72,0.00,,,0.00,881.0,meteohub,2013-07-08 16:42:00,
2013-07-08 12:48:00,82.9,73.4,29.99,South,181,0.0,14.0,73,0.00,,,0.00,874.0,meteohub,2013-07-08 16:48:00,
2013-07-08 12:53:00,82.9,73.4,29.99,SSW,205,12.0,14.0,73,0.00,,,0.00,877.0,meteohub,2013-07-08 16:53:00,
2013-07-08 12:58:00,83.5,73.9,29.99,SSE,150,2.0,13.0,73,0.00,,,0.00,886.0,meteohub,2013-07-08 16:58:00,
2013-07-08 13:03:00,83.7,73.6,29.99,SW,220,7.0,13.0,72,0.00,,,0.00,884.0,meteohub,2013-07-08 17:03:00,
2013-07-08 13:08:00,83.8,73.4,29.99,SSW,212,10.0,15.0,71,0.00,,,0.00,891.0,meteohub,2013-07-08 17:08:00,
2013-07-08 13:13:00,84.0,73.6,29.99,SSE,167,5.0,15.0,71,0.00,,,0.00,916.0,meteohub,2013-07-08 17:13:00,
2013-07-08 13:19:00,84.4,73.6,29.99,South,182,2.0,13.0,70,0.00,,,0.00,921.0,meteohub,2013-07-08 17:19:00,
2013-07-08 13:24:00,84.9,74.1,29.99,SSW,200,6.0,14.0,70,0.00,,,0.00,939.0,meteohub,2013-07-08 17:24:00,
2013-07-08 13:29:00,85.5,74.1,29.99,West,260,5.0,14.0,69,0.00,,,0.00,935.0,meteohub,2013-07-08 17:29:00,
2013-07-08 13:34:00,85.6,73.4,29.99,SSW,198,10.0,13.0,67,0.00,,,0.00,947.0,meteohub,2013-07-08 17:34:00,
2013-07-08 13:39:00,85.6,73.0,29.99,SSE,152,8.0,14.0,66,0.00,,,0.00,1023.0,meteohub,2013-07-08 17:39:00,
2013-07-08 13:44:00,85.1,72.5,29.99,SW,225,12.0,16.0,66,0.00,,,0.00,490.0,meteohub,2013-07-08 17:44:00,
2013-07-08 13:49:00,84.7,72.5,29.99,SW,230,8.0,16.0,67,0.00,,,0.00,139.0,meteohub,2013-07-08 17:49:00,
2013-07-08 13:54:00,84.4,72.7,29.99,SSE,156,0.0,16.0,68,0.00,,,0.00,867.0,meteohub,2013-07-08 17:54:00,
2013-07-08 14:00:00,84.7,73.0,29.99,SW,226,5.0,15.0,68,0.00,,,0.00,856.0,meteohub,2013-07-08 18:00:00,
2013-07-08 14:05:00,85.8,73.2,29.99,SSW,206,4.0,14.0,66,0.00,,,0.00,851.0,meteohub,2013-07-08 18:05:00,
2013-07-08 14:10:00,85.8,73.2,29.99,SW,229,3.0,12.0,66,0.00,,,0.00,846.0,meteohub,2013-07-08 18:10:00,
2013-07-08 14:15:00,86.4,73.6,29.98,WSW,246,0.0,12.0,66,0.00,,,0.00,840.0,meteohub,2013-07-08 18:15:00,
2013-07-08 14:20:00,86.9,73.8,29.98,West,262,2.0,12.0,65,0.00,,,0.00,840.0,meteohub,2013-07-08 18:20:00,
2013-07-08 14:25:00,87.4,73.8,29.98,South,189,4.0,15.0,64,0.00,,,0.00,831.0,meteohub,2013-07-08 18:25:00,
2013-07-08 14:30:00,87.3,72.7,29.97,SW,222,13.0,18.0,62,0.00,,,0.00,812.0,meteohub,2013-07-08 18:30:00,
2013-07-08 14:36:00,86.5,72.5,29.97,SW,219,7.0,18.0,63,0.00,,,0.00,810.0,meteohub,2013-07-08 18:36:00,
2013-07-08 14:41:00,87.1,72.9,29.97,SW,223,8.0,18.0,63,0.00,,,0.00,812.0,meteohub,2013-07-08 18:41:00,
2013-07-08 14:46:00,87.3,72.1,29.97,WSW,242,11.0,18.0,61,0.00,,,0.00,803.0,meteohub,2013-07-08 18:46:00,
2013-07-08 14:52:00,87.1,72.5,29.97,SW,225,10.0,17.0,62,0.00,,,0.00,795.0,meteohub,2013-07-08 18:52:00,
2013-07-08 14:57:00,87.1,72.0,29.97,West,263,7.0,17.0,61,0.00,,,0.00,738.0,meteohub,2013-07-08 18:57:00,
2013-07-08 15:02:00,87.3,72.1,29.97,WSW,245,10.0,17.0,61,0.00,,,0.00,773.0,meteohub,2013-07-08 19:02:00,
2013-07-08 15:07:00,87.6,72.5,29.97,West,261,11.0,15.0,61,0.00,,,0.00,766.0,meteohub,2013-07-08 19:07:00,
2013-07-08 15:12:00,88.0,71.8,29.97,SW,220,6.0,14.0,59,0.00,,,0.00,765.0,meteohub,2013-07-08 19:12:00,
2013-07-08 15:18:00,88.2,72.0,29.97,SW,236,8.0,14.0,59,0.00,,,0.00,761.0,meteohub,2013-07-08 19:18:00,
2013-07-08 15:24:00,88.3,71.6,29.96,South,187,2.0,13.0,58,0.00,,,0.00,747.0,meteohub,2013-07-08 19:24:00,
2013-07-08 15:29:00,87.4,70.9,29.96,WSW,237,5.0,13.0,58,0.00,,,0.00,728.0,meteohub,2013-07-08 19:29:00,
2013-07-08 15:34:00,87.3,71.2,29.96,SSW,199,5.0,17.0,59,0.00,,,0.00,712.0,meteohub,2013-07-08 19:34:00,
2013-07-08 15:40:00,87.6,71.1,29.96,South,176,5.0,17.0,58,0.00,,,0.00,700.0,meteohub,2013-07-08 19:40:00,
2013-07-08 15:46:00,87.4,71.4,29.96,SW,221,6.0,11.0,59,0.00,,,0.00,696.0,meteohub,2013-07-08 19:46:00,
2013-07-08 15:51:00,86.9,70.3,29.96,South,171,7.0,17.0,58,0.00,,,0.00,686.0,meteohub,2013-07-08 19:51:00,
2013-07-08 15:56:00,86.7,70.7,29.95,SW,223,6.0,17.0,59,0.00,,,0.00,673.0,meteohub,2013-07-08 19:56:00,
2013-07-08 16:02:00,87.3,71.2,29.95,South,182,6.0,17.0,59,0.00,,,0.00,659.0,meteohub,2013-07-08 20:02:00,
2013-07-08 16:07:00,87.1,70.5,29.95,West,271,8.0,16.0,58,0.00,,,0.00,650.0,meteohub,2013-07-08 20:07:00,
2013-07-08 16:12:00,87.3,70.7,29.95,SSW,196,11.0,13.0,58,0.00,,,0.00,633.0,meteohub,2013-07-08 20:12:00,
2013-07-08 16:17:00,87.3,70.2,29.95,SSE,153,6.0,13.0,57,0.00,,,0.00,613.0,meteohub,2013-07-08 20:17:00,
2013-07-08 16:22:00,87.4,70.9,29.95,SW,215,12.0,13.0,58,0.00,,,0.00,608.0,meteohub,2013-07-08 20:22:00,
2013-07-08 16:28:00,87.4,70.9,29.95,SSW,192,7.0,13.0,58,0.00,,,0.00,594.0,meteohub,2013-07-08 20:28:00,
2013-07-08 16:33:00,87.4,70.9,29.95,WSW,240,6.0,14.0,58,0.00,,,0.00,582.0,meteohub,2013-07-08 20:33:00,
2013-07-08 16:38:00,87.4,70.3,29.95,South,182,3.0,17.0,57,0.00,,,0.00,573.0,meteohub,2013-07-08 20:38:00,
2013-07-08 16:44:00,87.8,71.2,29.95,SW,229,7.0,17.0,58,0.00,,,0.00,557.0,meteohub,2013-07-08 20:44:00,
2013-07-08 16:50:00,88.0,70.9,29.95,SW,220,9.0,15.0,57,0.00,,,0.00,540.0,meteohub,2013-07-08 20:50:00,
2013-07-08 16:56:00,88.0,70.9,29.95,SW,217,4.0,13.0,57,0.00,,,0.00,520.0,meteohub,2013-07-08 20:56:00,
2013-07-08 17:02:00,87.8,70.7,29.95,South,172,4.0,13.0,57,0.00,,,0.00,504.0,meteohub,2013-07-08 21:02:00,
2013-07-08 17:08:00,87.6,70.5,29.95,SW,230,8.0,12.0,57,0.00,,,0.00,478.0,meteohub,2013-07-08 21:08:00,
2013-07-08 17:13:00,87.3,70.2,29.95,SSE,162,8.0,12.0,57,0.00,,,0.00,478.0,meteohub,2013-07-08 21:13:00,
2013-07-08 17:20:00,87.3,70.2,29.95,South,183,4.0,13.0,57,0.00,,,0.00,455.0,meteohub,2013-07-08 21:20:00,
2013-07-08 17:25:00,87.4,70.9,29.95,South,178,4.0,13.0,58,0.00,,,0.00,425.0,meteohub,2013-07-08 21:25:00,
2013-07-08 17:30:00,87.4,70.9,29.95,SE,142,8.0,13.0,58,0.00,,,0.00,429.0,meteohub,2013-07-08 21:30:00,
2013-07-08 17:36:00,87.3,71.2,29.95,SW,215,4.0,12.0,59,0.00,,,0.00,410.0,meteohub,2013-07-08 21:36:00,
2013-07-08 17:41:00,87.1,71.1,29.95,SW,233,6.0,12.0,59,0.00,,,0.00,394.0,meteohub,2013-07-08 21:41:00,
2013-07-08 17:46:00,86.5,71.1,29.94,SSW,212,0.0,12.0,60,0.00,,,0.00,373.0,meteohub,2013-07-08 21:46:00,
2013-07-08 17:52:00,86.2,71.1,29.94,SSW,213,3.0,10.0,61,0.00,,,0.00,357.0,meteohub,2013-07-08 21:52:00,
2013-07-08 17:57:00,85.8,71.2,29.94,South,171,4.0,10.0,62,0.00,,,0.00,346.0,meteohub,2013-07-08 21:57:00,
2013-07-08 18:02:00,85.6,71.6,29.94,SW,227,5.0,10.0,63,0.00,,,0.00,330.0,meteohub,2013-07-08 22:02:00,
2013-07-08 18:07:00,85.6,72.1,29.95,South,184,5.0,10.0,64,0.00,,,0.00,316.0,meteohub,2013-07-08 22:07:00,
2013-07-08 18:13:00,85.8,72.7,29.95,SW,217,3.0,10.0,65,0.00,,,0.00,301.0,meteohub,2013-07-08 22:13:00,
2013-07-08 18:18:00,85.6,72.5,29.95,South,179,5.0,7.0,65,0.00,,,0.00,285.0,meteohub,2013-07-08 22:18:00,
2013-07-08 18:24:00,85.3,73.0,29.95,South,188,0.0,8.0,67,0.00,,,0.00,274.0,meteohub,2013-07-08 22:24:00,
2013-07-08 18:29:00,84.6,73.8,29.95,SSE,161,5.0,8.0,70,0.00,,,0.00,255.0,meteohub,2013-07-08 22:29:00,
2013-07-08 18:34:00,84.2,73.8,29.95,SSW,197,1.0,12.0,71,0.00,,,0.00,251.0,meteohub,2013-07-08 22:34:00,
2013-07-08 18:40:00,84.2,73.8,29.95,SSW,205,8.0,12.0,71,0.00,,,0.00,241.0,meteohub,2013-07-08 22:40:00,
2013-07-08 18:45:00,83.8,74.3,29.95,SW,230,6.0,12.0,73,0.00,,,0.00,239.0,meteohub,2013-07-08 22:45:00,
2013-07-08 18:50:00,83.7,74.1,29.95,South,182,0.0,13.0,73,0.00,,,0.00,221.0,meteohub,2013-07-08 22:50:00,
2013-07-08 18:56:00,83.5,74.3,29.95,SW,234,10.0,13.0,74,0.00,,,0.00,199.0,meteohub,2013-07-08 22:56:00,
2013-07-08 19:01:00,83.1,73.9,29.95,SW,215,8.0,10.0,74,0.00,,,0.00,181.0,meteohub,2013-07-08 23:01:00,
2013-07-08 19:06:00,82.9,74.1,29.95,SSE,160,0.0,12.0,75,0.00,,,0.00,151.0,meteohub,2013-07-08 23:06:00,
2013-07-08 19:11:00,82.8,73.9,29.96,South,177,5.0,12.0,75,0.00,,,0.00,137.0,meteohub,2013-07-08 23:11:00,
2013-07-08 19:16:00,82.4,73.8,29.95,WSW,246,6.0,12.0,75,0.00,,,0.00,123.0,meteohub,2013-07-08 23:16:00,
2013-07-08 19:21:00,82.2,73.9,29.96,SSW,211,3.0,11.0,76,0.00,,,0.00,107.0,meteohub,2013-07-08 23:21:00,
2013-07-08 19:27:00,82.0,73.8,29.96,South,184,2.0,11.0,76,0.00,,,0.00,81.0,meteohub,2013-07-08 23:27:00,
2013-07-08 19:32:00,81.7,73.4,29.96,South,180,6.0,12.0,76,0.00,,,0.00,65.0,meteohub,2013-07-08 23:32:00,
2013-07-08 19:37:00,81.1,73.2,29.96,SW,227,10.0,12.0,77,0.00,,,0.00,54.0,meteohub,2013-07-08 23:37:00,
2013-07-08 19:42:00,80.8,73.2,29.96,South,179,2.0,12.0,78,0.00,,,0.00,42.0,meteohub,2013-07-08 23:42:00,
2013-07-08 19:48:00,80.4,72.9,29.96,South,174,5.0,10.0,78,0.00,,,0.00,25.0,meteohub,2013-07-08 23:48:00,
2013-07-08 19:53:00,80.2,73.0,29.96,South,189,5.0,10.0,79,0.00,,,0.00,21.0,meteohub,2013-07-08 23:53:00,
2013-07-08 19:58:00,80.1,73.0,29.97,SSE,161,4.0,8.0,79,0.00,,,0.00,16.0,meteohub,2013-07-08 23:58:00,
2013-07-08 20:03:00,79.7,72.7,29.97,South,173,4.0,9.0,79,0.00,,,0.00,11.0,meteohub,2013-07-09 00:03:00,
2013-07-08 20:08:00,79.5,72.5,29.98,South,186,2.0,9.0,79,0.00,,,0.00,7.0,meteohub,2013-07-09 00:08:00,
2013-07-08 20:14:00,79.3,72.7,29.98,SSE,161,5.0,9.0,80,0.00,,,0.00,5.0,meteohub,2013-07-09 00:14:00,
2013-07-08 20:19:00,79.3,72.7,29.98,SW,221,6.0,9.0,80,0.00,,,0.00,0.0,meteohub,2013-07-09 00:19:00,
2013-07-08 20:25:00,79.2,72.5,29.98,South,182,6.0,9.0,80,0.00,,,0.00,0.0,meteohub,2013-07-09 00:25:00,
2013-07-08 20:30:00,79.0,72.7,29.98,SSE,166,5.0,11.0,81,0.00,,,0.00,0.0,meteohub,2013-07-09 00:30:00,
2013-07-08 20:35:00,78.6,72.7,29.98,SW,215,4.0,11.0,82,0.00,,,0.00,0.0,meteohub,2013-07-09 00:35:00,
2013-07-08 20:40:00,78.4,72.5,29.98,South,186,2.0,9.0,82,0.00,,,0.00,0.0,meteohub,2013-07-09 00:40:00,
2013-07-08 20:46:00,78.3,72.7,29.98,South,181,1.0,9.0,83,0.00,,,0.00,0.0,meteohub,2013-07-09 00:46:00,
2013-07-08 20:51:00,78.3,72.7,29.99,SW,221,1.0,9.0,83,0.00,,,0.00,0.0,meteohub,2013-07-09 00:51:00,
2013-07-08 20:56:00,78.3,72.7,29.99,West,267,2.0,9.0,83,0.00,,,0.00,0.0,meteohub,2013-07-09 00:56:00,
2013-07-08 21:01:00,78.1,72.5,29.99,SW,215,0.0,9.0,83,0.00,,,0.00,0.0,meteohub,2013-07-09 01:01:00,
2013-07-08 21:06:00,78.3,72.7,29.99,SW,223,0.0,9.0,83,0.00,,,0.00,0.0,meteohub,2013-07-09 01:06:00,
2013-07-08 21:12:00,78.3,72.7,29.99,SSW,212,0.0,7.0,83,0.00,,,0.00,0.0,meteohub,2013-07-09 01:12:00,
2013-07-08 21:17:00,78.1,72.5,29.99,South,178,1.0,7.0,83,0.00,,,0.00,0.0,meteohub,2013-07-09 01:17:00,
2013-07-08 21:23:00,78.1,72.1,30.00,SW,214,0.0,7.0,82,0.00,,,0.00,0.0,meteohub,2013-07-09 01:23:00,
2013-07-08 21:29:00,78.1,72.1,30.00,SW,221,2.0,7.0,82,0.00,,,0.00,0.0,meteohub,2013-07-09 01:29:00,
2013-07-08 21:35:00,78.1,72.1,30.00,West,263,1.0,7.0,82,0.00,,,0.00,0.0,meteohub,2013-07-09 01:35:00,
2013-07-08 21:40:00,78.1,72.1,30.00,WSW,244,0.0,6.0,82,0.00,,,0.00,0.0,meteohub,2013-07-09 01:40:00,
2013-07-08 21:46:00,78.1,72.1,30.00,WSW,244,2.0,5.0,82,0.00,,,0.00,0.0,meteohub,2013-07-09 01:46:00,
2013-07-08 21:51:00,77.9,72.0,30.01,WSW,244,2.0,5.0,82,0.00,,,0.00,0.0,meteohub,2013-07-09 01:51:00,
2013-07-08 21:56:00,77.7,72.1,30.01,SSW,212,0.0,3.0,83,0.00,,,0.00,0.0,meteohub,2013-07-09 01:56:00,
2013-07-08 22:02:00,77.7,72.1,30.01,SSW,212,0.0,4.0,83,0.00,,,0.00,0.0,meteohub,2013-07-09 02:02:00,
2013-07-08 22:07:00,77.5,72.0,30.01,SSW,212,2.0,4.0,83,0.00,,,0.00,0.0,meteohub,2013-07-09 02:07:00,
2013-07-08 22:12:00,77.5,72.0,30.01,SW,227,3.0,6.0,83,0.00,,,0.00,0.0,meteohub,2013-07-09 02:12:00,
2013-07-08 22:17:00,77.5,72.0,30.01,SW,221,0.0,6.0,83,0.00,,,0.00,0.0,meteohub,2013-07-09 02:17:00,
2013-07-08 22:22:00,77.5,72.0,30.01,South,173,0.0,6.0,83,0.00,,,0.00,0.0,meteohub,2013-07-09 02:22:00,
2013-07-08 22:27:00,77.5,72.0,30.01,WSW,258,0.0,7.0,83,0.00,,,0.00,0.0,meteohub,2013-07-09 02:27:00,
2013-07-08 22:33:00,77.5,72.0,30.01,SSW,207,2.0,7.0,83,0.00,,,0.00,0.0,meteohub,2013-07-09 02:33:00,
2013-07-08 22:38:00,77.4,71.8,30.01,SSW,209,2.0,5.0,83,0.00,,,0.00,0.0,meteohub,2013-07-09 02:38:00,
2013-07-08 22:44:00,77.4,71.8,30.01,WSW,257,2.0,6.0,83,0.00,,,0.00,0.0,meteohub,2013-07-09 02:44:00,
2013-07-08 22:49:00,77.4,71.8,30.01,WSW,240,2.0,6.0,83,0.00,,,0.00,0.0,meteohub,2013-07-09 02:49:00,
2013-07-08 22:54:00,77.2,71.6,30.00,WSW,240,0.0,5.0,83,0.00,,,0.00,0.0,meteohub,2013-07-09 02:54:00,
2013-07-08 22:59:00,77.2,72.0,30.00,WSW,240,0.0,4.0,84,0.00,,,0.00,0.0,meteohub,2013-07-09 02:59:00,
2013-07-08 23:06:00,76.8,71.6,30.00,WSW,240,0.0,3.0,84,0.00,,,0.00,0.0,meteohub,2013-07-09 03:06:00,
2013-07-08 23:11:00,76.8,71.6,30.00,WSW,240,1.0,3.0,84,0.00,,,0.00,0.0,meteohub,2013-07-09 03:11:00,
2013-07-08 23:16:00,76.6,71.4,30.00,WSW,240,0.0,3.0,84,0.00,,,0.00,0.0,meteohub,2013-07-09 03:16:00,
2013-07-08 23:22:00,76.6,71.4,30.00,WSW,240,0.0,3.0,84,0.00,,,0.00,0.0,meteohub,2013-07-09 03:22:00,
2013-07-08 23:27:00,76.5,71.6,30.01,WSW,240,0.0,2.0,85,0.00,,,0.00,0.0,meteohub,2013-07-09 03:27:00,
2013-07-08 23:32:00,76.3,71.4,30.01,WSW,240,0.0,1.0,85,0.00,,,0.00,0.0,meteohub,2013-07-09 03:32:00,
2013-07-08 23:37:00,76.3,71.4,30.01,WSW,240,0.0,1.0,85,0.00,,,0.00,0.0,meteohub,2013-07-09 03:37:00,
2013-07-08 23:42:00,75.9,71.4,30.01,WSW,240,0.0,1.0,86,0.00,,,0.00,0.0,meteohub,2013-07-09 03:42:00,
2013-07-08 23:48:00,75.6,71.4,30.01,WSW,240,0.0,0.0,87,0.00,,,0.00,0.0,meteohub,2013-07-09 03:48:00,
2013-07-08 23:53:00,75.6,71.4,30.01,WSW,240,0.0,0.0,87,0.00,,,0.00,0.0,meteohub,2013-07-09 03:53:00,
2013-07-08 23:59:00,75.6,71.4,30.01,WSW,240,0.0,0.0,87,0.00,,,0.00,0.0,meteohub,2013-07-09 03:59:00,